Location: Gebenbach
(49.5378°N, 11.8735°E)
Time: 11:48:31
(UTC+00:00)

Cosmos 2151 - Pass Details

Date: 29 October 2020
Orbit: 580 x 602 km, 82.5° (Epoch: 24 November)

Event Time Altitude Azimuth Distance (km) Brightness Sun altitude
Rises 17:31:41 0° 357° (N) 2,821 6.5 -16.2°
Reaches altitude 10° 17:34:05 10° 8° (N) 1,914 5.5 -16.6°
Enters shadow 17:37:29 31° 60° (ENE) 1,032 3.7 -17.1°
